Regional Weather Roundup
Issued by NWS Newport/Morehead, NC

Current Version | Previous Version | Graphics & Text | Print | Product List | Glossary Off
Versions: 1 2 3 4 5 6 7 8 9 10 11 12 13 14 15 16 17 18 19 20 21 22 23 24 25 26 27 28 29 30 31 32 33 34 35 36 37 38 39 40 41 42 43 44 45 46 47 48 49 50

000
ASUS42 KMHX 160426
RWRMHX
WEATHER ROUNDUP FOR EASTERN NORTH CAROLINA
NATIONAL WEATHER SERVICE NEWPORT/MOREHEAD CITY NC
1100 PM EST FRI DEC 15 2017

NOTE: "FAIR" INDICATES FEW OR NO CLOUDS BELOW 12,000 FEET
WITH NO SIGNIFICANT WEATHER AND/OR OBSTRUCTIONS TO VISIBILITY

NCZ015>017-031-032-045>047-102-103-160500-
NORTH COAST

CITY           SKY/WX    TMP DP  RH WIND       PRES   REMARKS
EDENTON        CLEAR     38  29  72 NW6       30.08R
ELIZABETH CITY CLEAR     30  27  88 W7        30.06R
KITTY HAWK     CLEAR     37  26  66 CALM      30.04S
MANTEO         PTCLDY    38  27  65 NW9G17    30.06R

$$

NCZ045>047-081-094-103-104-160500-
CENTRAL COAST

CITY           SKY/WX    TMP DP  RH WIND       PRES   REMARKS
FRISCO         PTCLDY    43  31  62 NW13G22   30.06R

$$

NCZ095-097-098-100-101-160500-
SOUTHERN COAST

CITY           SKY/WX    TMP DP  RH WIND       PRES   REMARKS
BEAUFORT       PTCLDY    43  30  60 N14       30.08R
CEDAR ISLAND   NOT AVBL
JACKSONVILLE   CLOUDY    40  30  67 NW7       30.10R
PINEY ISLAND     N/A    N/A N/A N/A NW10      30.08R
WILMINGTON     PTCLDY    45  32  60 N7        30.11R


$$

NCZ011>013-027>030-043-044-078>080-089-090>093-098-160500-
COASTAL PLAIN

CITY           SKY/WX    TMP DP  RH WIND       PRES   REMARKS
AHOSKIE        CLEAR     29  25  85 CALM      30.09R
CLINTON        CLEAR     36  32  85 CALM      30.11S
ELIZABETHTOWN  NOT AVBL
GOLDSBORO      CLEAR     36  28  71 CALM      30.09R
GREENVILLE     CLEAR     32  28  86 CALM      30.11R
HAVELOCK       CLEAR     42  29  59 NW12      30.09R
KENANSVILLE    CLEAR     32  28  86 CALM      30.10S
KINSTON        NOT AVBL
NEW BERN       PTCLDY    38  29  70 NW5       30.10R
RICHLANDS      PTCLDY    39  30  70 NW3       30.11R
ROCKY MOUNT    CLEAR     34  28  79 NW5       30.10R
WASHINGTON     CLEAR     35  27  72 CALM      30.09R
WHITEVILLE     CLOUDY    43  30  60 CALM      30.11R

$$

AMZ130-135-150-152-154-156-158-170-250-252-270-ANZ085-086-088-633-658-670-160500-
MARINE OBSERVATIONS

STATION/POSITION TIME  TEMP    WIND        PRES    WAVE   SWELL
                       AIR SEA DIR/SP/G            HT/PER HT/PER
                 (UTC) (F)     (DEG/KT/KT) (MB)    (FT/S) (FT/S)
CHESAPEAKE LIGHT NOT AVBL
64 E VA BEACH    0350   42 59  310/ 23/ 29 1016.2    8/ 7
DUCK             0400   37 52  310/ 15/ 17 1017.0
2 E DUCK         0400      54                N/A     3/ 4
OREGON INLET     0400   39 48  310/ 15/ 18 1017.5
13E OREGON INLT  0348      62                N/A     5/ 5   2/11
HATTERAS CG      0400   43 54  330/ 22/ 25 1017.6
DIAMOND BUOY     0410   47 73  320/ 23/ 29 1017.9
CAPE LOOKOUT     0400          330/ 15/ 20 1018.8
BEAUFORT LAB     0400   43 51  350/  7/ 12 1018.5
30 SE NEW RVR IN 0408   50 64  350/ 16/ 21 1018.7
30 SE NEW RVR IN 0400      64                N/A     5/ 6
27 SE WRIGHTSVLE 0408   51 64  350/ 17/ 27 1018.9
5 SE WRIGHTSVLE  0408   49 56  340/ 14/ 19 1018.6
225 S CAPE HAT   0350   71 75  260/ 21/ 27 1016.2    8/ 7
41 SE CHARLESTON 0410   58 72  300/ 17/ 23 1018.9

$$




USA.gov is the U.S. government's official web portal to all federal, state and local government web resources and services.